Tracking 19831 objects as of 23-Aug-2019
HD Live streaming from Space Station
objects crossing your sky now

COSMOS 2251 DEB

Track COSMOS 2251 DEB now!
10-day predictions


NORAD ID: 35701
Int'l Code: 1993-036APW
Perigee: 769.0 km
Apogee: 1,234.9 km
Inclination: 74.0 °
Period: 105.0 minutes
Semi major axis: 7372 km
RCS: 0.0086 m2 (small)
Launch date: June 16, 1993
Source: Commonwealth of Independent States (former USSR) (CIS)
Launch site: PLESETSK MISSILE AND SPACE COMPLEX (PKMTR)

Note: This is SATELLITE DEBRIS
aabbcc
Your satellite tracking list
Your tracking list is empty




NASA's NSSDC Master Catalog

Two Line Element Set (TLE):
1 35701U 93036APW 19234.19210116 +.00000721 +00000-0 +58007-3 0  9990
2 35701 074.0116 174.8241 0315968 155.7287 205.9095 13.71317535520835
Source of the keplerian elements: AFSPC